Regional Weather Roundup
Issued by NWS

Home | Current Version | Previous Version | Graphics & Text | Print | Product List | Glossary On
Versions: 1 2 3 4 5 6 7 8 9 10 11 12 13 14 15 16 17 18 19 20 21 22 23 24 25 26 27 28 29 30 31 32 33 34 35 36 37 38 39 40 41 42 43 44 45 46 47 48 49 50
640
ASUS45 KCYS 051110
RWRWY

WYOMING REGIONAL WEATHER ROUNDUP
NATIONAL WEATHER SERVICE CHEYENNE WY
500 AM MDT THU MAY 05 2016

NOTE:  "FAIR" INDICATES FEW OR NO CLOUDS BELOW 12,000 FEET
WITH NO SIGNIFICANT WEATHER AND/OR OBSTRUCTIONS TO VISIBILITY.

WYZ001-051200-
YELLOWSTONE NATIONAL PARK

CITY           SKY/WX    TMP DP  RH WIND       PRES   REMARKS
LK YELLOWSTONE   N/A     32  28  85 CALM      30.20R
W YELLOWSTONE  NOT AVBL

$$
WYZ002>013-054>058-071-098>099-051200-
NORTHERN WYOMING

CITY           SKY/WX    TMP DP  RH WIND       PRES   REMARKS
JACKSON        FAIR      36  30  80 N5        30.14R WCI  32
CODY           FAIR      57  28  33 SW9       29.99S
GREYBULL       FAIR      54  30  40 CALM      29.95R
WORLAND        FAIR      48  40  73 CALM      29.96S
SHERIDAN       FAIR      46  35  65 SW3       29.94S
BUFFALO        FAIR      54  28  36 CALM      30.00S
GILLETTE       FAIR      50  40  68 S8        29.99R
HULETT         FAIR      55  37  50 SW8       30.00S
NEWCASTLE      FAIR      55  36  47 SE3       30.03R

$$
WYZ014>020-022>026-101>103-051200-
CENTRAL WYOMING

CITY           SKY/WX    TMP DP  RH WIND       PRES   REMARKS
BIG PINEY      FAIR      36  27  69 CALM      30.17R
PINEDALE       FAIR      34  30  86 NW3       30.18R
DUBOIS         FAIR      41  23  48 NW13      30.14S
LANDER         FAIR      57  27  31 N5        30.04R
RIVERTON       FAIR      52  37  56 NW3       30.05S
CASPER         FAIR      47  36  65 SW8       30.06S
DOUGLAS        FAIR      42  38  85 CALM      30.06R

$$
WYZ021-027>030-104>119-051200-
SOUTHERN WYOMING

CITY           SKY/WX    TMP DP  RH WIND       PRES   REMARKS
EVANSTON       FAIR      54  23  30 E6        30.13S
KEMMERER         N/A     41  30  65 N12       30.16S
FORT BRIDGER   SUNNY     54  27  35 CALM      30.16F
ROCK SPRINGS   FAIR      50  27  40 CALM      30.15R
DIXON          FAIR      43  29  58 CALM      30.20F
RAWLINS        FAIR      40  30  67 CALM      30.17R
SARATOGA       FAIR      39  28  65 SE5       30.20S
LARAMIE        FAIR      38  31  76 S10       30.21R WCI  31
CHEYENNE       FAIR      46  35  65 W9        30.15R
TORRINGTON     FAIR      46  39  76 E10       30.04S
PINE BLUFFS    FAIR      41  36  81 CALM      30.12S

$$




USA.gov is the U.S. government's official web portal to all federal, state and local government web resources and services.